Simultaneous Nadir Overpasses (SNOs) Predictions

Prediction of SNOs between LANDSAT-8 and METOP-B Satellite Orbit:

Table of predicted SNOs for the next 14.0 days since TLE Epoch: 9/13/2016
Index Date (LANDSAT-8) Time (LANDSAT-8) Lat,Lon (LANDSAT-8) SZA (LANDSAT-8 ) Date (METOP-B) Time (METOP-B) Lat,Lon (METOP-B) SZA (METOP-B ) Distance(km) Time Diff (sec)
1 09/13/2016 18:45:19 81.08, -62.02 79.79 09/13/2016 18:45:17 81.07, -62.21 79.77 3.21 2
2 09/13/2016 19:34:44 -81.12, 106.31 100.10 09/13/2016 19:35:55 -81.12, 106.41 100.06 1.67 71
3 09/16/2016 13:30:09 -81.06,-163.47 99.16 09/16/2016 13:29:02 -81.06,-163.54 99.20 1.23 67
4 09/16/2016 14:19:34 81.09, 4.57 80.91 09/16/2016 14:19:40 81.09, 4.61 80.92 0.78 6
5 09/19/2016 09:04:23 -81.07, -96.90 98.03 09/19/2016 09:03:24 -81.07, -96.75 98.04 2.70 59
6 09/19/2016 09:53:48 81.09, 71.11 82.04 09/19/2016 09:54:03 81.09, 71.03 82.04 1.45 15
7 09/22/2016 04:38:38 -81.07, -30.38 96.91 09/22/2016 04:37:48 -81.07, -30.35 96.93 0.51 50
8 09/22/2016 05:28:03 81.10, 137.61 83.16 09/22/2016 05:28:27 81.09, 137.43 83.15 3.19 24
9 09/25/2016 00:12:53 -81.08, 36.10 95.79 09/25/2016 00:12:12 -81.07, 36.02 95.82 1.34 41




NCC Satellite Simultaneous Nadir Overpasses (SNOs) Prediction Service
